User: anonymous
Location: Caltech
(34.1382°N, 118.1253°W)
Time: 09:15:15
(UTC-07:00)
Language:

Cosmos 44 Rocket - Orbit

View from above orbital plane
View from above orbital plane
View from above satellite
View from above satellite

Ground track
Ground track

The orbit data is extracted from the following two-line orbital elements,

1 00877U 64053B   14265.39387883  .00000071  00000-0  39892-4 0  7325
2 00877 065.0794 330.0945 0057836 156.4227 203.9543 14.58894369655789
Epoch (UTC): 22 September 2014 09:27:11
Eccentricity: 0.0057836
inclination: 65.0794°
perigee height: 656 km
apogee height: 737 km
right ascension of ascending node: 330.0945°
argument of perigee: 156.4227°
revolutions per day: 14.58894369
mean anomaly at epoch: 203.9543°
orbit number at epoch: 65578

The dashed part of the orbit path shows where the satellite is in the earth's shadow,  

DLR